Starlink 31280

operational
NORAD ID: 58843 Int'l Des: 2024-017 Owner: SPXS Country: US Constellation: starlink
LEOCIRCULAR

Über Starlink 31280

Beschreibung wird geladen...

Live-Position

3D-Globus wird geladen...

Nächste Überflüge

Höhenverlauf

Altitude vs Time

uPlot chart will show altitude changes over time

Zweizeiliger Elementsatz

1 58843U 24017T 25350.93415759 .00006531 00000-0 23224-3 0 9991
2 58843 53.1610 228.8756 0001503 85.5235 274.5938 15.30227580107381
Epoch: 16. Dez. 2025 • Age: 11 hours

Aktueller Status

Höhe 481.4 km
Geschwindigkeit 7.62 km/s
Subsatellitenpunkt -20.99°S, 15.25°W
Startdatum 24. Jan. 2024
Alter 1.8 years
Typ internet

Technische Details

Klassifizierung Payload
Masse 730.00 kg
Trockenmasse 700.00 kg
Gesamtmasse 730.00 kg
Länge 0.30 m
Durchmesser 4.10 m
Spannweite 29.00 m
Form Box + pan
Hersteller SPXS
Bus-Typ Starlink V2M
Phasenstatus In Orbit
Besitzer/Staat SPXS/US

Große Konstellationen

Loading constellations...